EW2784 Weather Reports


time (UTC)temp
F
wind
direction
speed
knots
gust
knots
rain 1hr
in
rain 24hr
in
rain mn
in
humidity
%
barometer
mb
20201126033926 54 208 4.3 11.3 0.09 1.22 1.22 99 1007.3
20201126033426 54 257 5.2 11.3 0.14 1.22 1.22 99 1007.4
20201126032927 54 288 5.2 11.3 0.17 1.22 1.22 99 1007.3
20201126032429 54 139 5.2 10.4 0.17 1.22 1.22 99 1007.0
20201126031926 54 259 5.2 16.5 0.17 1.22 1.22 99 1007.0
20201126031427 54 189 5.2 16.5 0.17 1.22 1.22 99 1007.0
20201126030929 54 258 7.0 16.5 0.17 1.22 1.22 99 1007.2
20201126030426 54 258 5.2 15.6 0.16 1.21 1.21 99 1007.1
20201126025924 53 266 4.3 11.3 0.15 1.20 1.20 99 1007.3
20201126025427 54 250 4.3 9.6 0.15 1.20 1.20 99 1007.4
20201126024924 53 230 4.3 10.4 0.13 1.18 1.18 99 1007.4
20201126024423 54 241 4.3 11.3 0.11 1.15 1.15 99 1007.1
20201126023925 54 246 4.3 11.3 0.09 1.13 1.13 98 1007.1
20201126023423 55 189 3.5 10.4 0.04 1.08 1.08 96 1007.0
20201126022924 55 267 4.3 12.2 0.01 1.06 1.06 96 1006.9
20201126022429 55 248 4.3 12.2 0.00 1.05 1.05 93 1006.8
20201126021928 55 235 4.3 9.6 0.00 1.05 1.05 94 1006.7
20201126021425 55 168 3.5 9.6 0.00 1.05 1.05 93 1006.7
20201126020925 55 139 3.5 11.3 0.00 1.05 1.05 94 1006.6
20201126020426 55 161 3.5 11.3 0.00 1.05 1.05 94 1006.6
20201126015924 54 163 3.5 8.7 0.00 1.05 1.05 96 1006.6
20201126015425 54 192 3.5 7.0 0.00 1.05 1.05 96 1006.9
20201126014924 54 162 3.5 9.6 0.00 1.05 1.05 97 1007.1
20201126014425 53 135 2.6 9.6 0.00 1.05 1.05 97 1007.1
20201126013931 53 153 1.7 7.0 0.00 1.05 1.05 98 1007.1
20201126013424 53 159 2.6 7.0 0.00 1.05 1.05 98 1007.2
20201126012928 53 143 2.6 7.0 0.00 1.05 1.05 98 1007.4
20201126012422 52 155 2.6 7.0 0.00 1.05 1.05 98 1007.4
20201126011920 52 149 2.6 5.2 0.00 1.05 1.05 98 1007.4
20201126011420 52 201 1.7 6.1 0.00 1.05 1.05 98 1007.5
20201126010922 52 206 2.6 8.7 0.00 1.05 1.05 98 1007.7
20201126010415 52 157 3.5 9.6 0.00 1.05 1.05 98 1007.8
20201126005918 51 137 2.6 9.6 0.00 1.05 1.05 98 1007.7
20201126005420 51 151 2.6 6.1 0.00 1.05 1.05 98 1008.0
20201126004916 51 159 2.6 7.8 0.00 1.05 1.05 98 1008.1
20201126004420 51 0 2.6 7.8 0.00 1.05 1.05 98 1008.2
20201126003916 51 139 2.6 5.2 0.00 1.05 1.05 98 1008.4
20201126003416 51 130 2.6 7.8 0.00 1.05 1.05 97 1008.4
20201126002918 51 125 3.5 7.8 0.00 1.05 1.05 97 1008.4
20201126002417 51 138 3.5 6.1 0.00 1.05 1.05 97 1008.4
20201126001919 51 130 2.6 7.0 0.00 1.05 1.05 97 1008.7
20201126001416 51 135 2.6 7.0 0.00 1.05 1.05 97 1008.7
20201126000920 51 151 1.7 4.3 0.00 1.05 1.05 97 1009.0
20201126000420 51 182 1.7 6.1 0.00 1.05 1.05 97 1009.0
20201125235913 51 157 2.6 7.8 0.00 1.05 1.05 97 1009.0
20201125235413 51 155 2.6 7.8 0.00 1.05 1.05 97 1009.0
20201125234914 51 189 1.7 6.1 0.00 1.05 1.05 97 1009.2
20201125234414 51 0 2.6 11.3 0.00 1.05 1.05 97 1009.3
20201125233917 51 128 2.6 11.3 0.00 1.05 1.05 97 1009.3
20201125233410 51 154 2.6 7.0 0.00 1.05 1.05 97 1009.4
20201125232911 51 131 2.6 6.1 0.00 1.05 1.05 97 1009.3
20201125232411 51 147 2.6 6.1 0.00 1.05 1.05 97 1009.4
20201125231911 51 147 1.7 5.2 0.00 1.05 1.05 97 1009.5
20201125231410 51 161 2.6 6.1 0.00 1.05 1.05 97 1009.5
20201125230911 51 170 2.6 7.0 0.00 1.05 1.05 97 1009.7
20201125230410 51 140 2.6 7.8 0.00 1.05 1.05 97 1009.6
20201125225915 51 99 3.5 7.8 0.00 1.04 1.04 97 1009.7
20201125225411 51 163 2.6 7.8 0.00 1.04 1.04 97 1009.8
20201125224910 51 254 2.6 7.8 0.00 1.04 1.04 97 1009.7
20201125224414 51 135 2.6 7.0 0.00 1.04 1.04 97 1009.7
20201125223910 50 184 1.7 7.0 0.00 1.04 1.04 97 1009.7
20201125223411 50 151 2.6 9.6 0.00 1.04 1.04 97 1009.7
20201125222915 50 148 3.5 9.6 0.00 1.04 1.04 98 1009.7
20201125222411 50 239 3.5 7.8 0.00 1.04 1.04 98 1009.8
20201125221912 50 152 3.5 7.8 0.00 1.04 1.04 98 1009.8
20201125221415 50 218 3.5 7.8 0.00 1.04 1.04 99 1009.8
20201125220911 50 155 2.6 7.8 0.00 1.04 1.04 99 1009.9
20201125220407 50 187 2.6 8.7 0.00 1.04 1.04 99 1009.9
20201125215902 50 153 2.6 7.0 0.00 1.04 1.04 99 1009.9
20201125215403 50 192 3.5 7.8 0.00 1.04 1.04 99 1010.0
20201125214910 49 144 2.6 7.8 0.00 1.04 1.04 99 1009.9
20201125214400 49 134 2.6 7.0 0.00 1.04 1.04 99 1010.1
20201125213859 49 161 3.5 7.0 0.00 1.04 1.04 99 1010.2
20201125213400 50 159 3.5 7.0 0.00 1.04 1.04 99 1010.2
20201125212859 49 226 3.5 8.7 0.00 1.04 1.04 99 1010.5
20201125212403 49 157 3.5 8.7 0.00 1.04 1.04 99 1010.4
20201125211914 49 172 3.5 9.6 0.00 1.04 1.04 99 1010.4
20201125211358 49 162 3.5 9.6 0.00 1.04 1.04 99 1010.5
20201125210905 49 187 3.5 9.6 0.00 1.04 1.04 99 1010.4
20201125210410 49 236 3.5 9.6 0.00 1.04 1.04 99 1010.5
20201125205859 49 258 3.5 7.0 0.00 1.04 1.04 99 1010.5
20201125205358 49 158 3.5 9.6 0.00 1.04 1.04 99 1010.5
20201125204904 49 211 3.5 9.6 0.00 1.04 1.04 99 1010.6
20201125204358 49 178 3.5 9.6 0.00 1.04 1.04 99 1010.6
20201125203859 49 167 3.5 9.6 0.00 1.04 1.04 99 1010.6
20201125203358 48 207 3.5 10.4 0.00 1.04 1.04 99 1010.6
20201125202859 48 294 4.3 10.4 0.00 1.04 1.04 99 1010.5
20201125202355 48 200 4.3 9.6 0.00 1.04 1.04 99 1010.5
20201125201855 48 244 3.5 9.6 0.00 1.04 1.04 99 1010.8
20201125201400 48 185 3.5 9.6 0.00 1.04 1.04 99 1010.9
20201125200854 48 240 3.5 9.6 0.00 1.04 1.04 99 1011.0
20201125200356 47 301 3.5 8.7 0.00 1.04 1.04 99 1011.0
20201125195859 47 185 3.5 8.7 0.00 1.04 1.04 99 1010.9
20201125195357 47 214 3.5 7.8 0.00 1.04 1.04 99 1011.0
20201125194855 47 184 3.5 8.7 0.00 1.05 1.04 99 1011.1
20201125194358 47 180 3.5 8.7 0.00 1.05 1.04 99 1011.2
20201125193858 47 199 2.6 7.8 0.00 1.05 1.04 99 1011.1
20201125193355 47 177 2.6 7.8 0.00 1.05 1.04 99 1011.2
20201125192857 47 272 3.5 9.6 0.01 1.05 1.04 99 1011.2
20201125192355 47 195 3.5 9.6 0.01 1.05 1.04 99 1011.4
20201125191855 47 193 3.5 13.0 0.02 1.05 1.04 99 1011.3
20201125191355 47 215 4.3 13.0 0.02 1.05 1.04 99 1011.5
20201125190855 47 169 4.3 10.4 0.02 1.05 1.04 99 1011.6
20201125190356 47 202 3.5 8.7 0.02 1.05 1.04 99 1011.5
20201125185855 47 203 4.3 9.6 0.02 1.05 1.04 99 1011.4
20201125185352 47 197 4.3 9.6 0.03 1.05 1.04 99 1011.5
20201125184856 47 168 3.5 9.6 0.04 1.05 1.04 99 1011.5
20201125184352 47 232 3.5 9.6 0.05 1.05 1.04 99 1011.7
20201125183850 47 273 3.5 12.2 0.06 1.05 1.04 99 1011.8
20201125183349 47 208 3.5 12.2 0.06 1.05 1.04 99 1011.9
20201125182850 47 147 4.3 12.2 0.06 1.04 1.03 99 1012.1
20201125182349 47 167 4.3 12.2 0.07 1.04 1.03 99 1012.0
20201125181852 47 188 4.3 12.2 0.09 1.04 1.03 99 1012.3
20201125181349 47 150 4.3 10.4 0.13 1.04 1.03 99 1012.1
20201125180850 47 204 4.3 10.4 0.18 1.04 1.03 99 1012.3
20201125180352 46 199 4.3 11.3 0.19 1.04 1.03 99 1012.3
20201125175853 46 232 4.3 11.3 0.20 1.03 1.02 99 1012.4
20201125175350 46 174 3.5 9.6 0.21 1.02 1.02 99 1012.7
20201125174854 46 198 4.3 11.3 0.23 1.01 1.00 99 1012.7
20201125174350 46 207 5.2 11.3 0.24 1.00 0.99 99 1012.9
20201125173850 46 181 4.3 10.4 0.28 0.99 0.98 99 1012.9
20201125173349 46 218 4.3 12.2 0.31 0.99 0.98 99 1013.0
20201125172850 46 179 4.3 12.2 0.31 0.98 0.97 99 1013.0
20201125172351 46 117 4.3 10.4 0.30 0.96 0.95 99 1013.3
20201125171844 46 221 4.3 10.4 0.28 0.94 0.93 99 1013.3
20201125171346 46 223 3.5 9.6 0.25 0.91 0.90 99 1013.5
20201125170843 46 214 3.5 9.6 0.20 0.85 0.85 99 1013.5
20201125170341 46 171 3.5 8.7 0.19 0.85 0.84 99 1013.6
20201125165845 46 166 4.3 12.2 0.19 0.83 0.82 99 1013.6
20201125165343 46 232 4.3 12.2 0.17 0.81 0.80 99 1013.7
20201125164841 46 166 4.3 10.4 0.15 0.78 0.78 99 1013.9
20201125164342 46 189 4.3 12.2 0.14 0.76 0.76 99 1014.1
20201125163844 46 152 3.5 12.2 0.13 0.71 0.70 99 1014.2
20201125163346 46 227 3.5 10.4 0.11 0.67 0.67 99 1014.4
20201125162841 45 226 3.5 10.4 0.11 0.67 0.66 99 1014.5
20201125162343 45 242 2.6 8.7 0.12 0.67 0.66 99 1014.6
20201125161843 45 244 3.5 11.3 0.12 0.66 0.65 99 1014.8
20201125161343 45 167 3.5 11.3 0.13 0.66 0.65 99 1014.8
20201125160843 45 201 3.5 9.6 0.15 0.66 0.65 99 1014.8
20201125160343 45 213 3.5 9.6 0.16 0.65 0.65 99 1015.0
20201125155843 45 179 3.5 9.6 0.16 0.65 0.64 99 1015.2
20201125155348 45 135 3.5 9.6 0.17 0.64 0.63 99 1015.3
20201125154852 45 206 3.5 7.8 0.17 0.63 0.63 99 1015.4
20201125154345 45 227 3.5 8.7 0.17 0.61 0.61 99 1015.5
20201125153842 45 206 3.5 8.7 0.15 0.59 0.58 99 1015.5
20201125153343 45 227 4.3 11.3 0.15 0.57 0.56 99 1015.6
20201125152843 45 166 4.3 11.3 0.15 0.56 0.55 99 1015.6
20201125152340 45 157 4.3 13.9 0.15 0.55 0.54 99 1015.7
20201125151836 45 160 3.5 13.9 0.15 0.54 0.53 99 1015.8
20201125151335 45 249 3.5 11.3 0.14 0.53 0.52 99 1015.9
20201125150831 44 183 4.3 13.0 0.13 0.51 0.50 99 1015.9
20201125150330 44 208 4.3 13.0 0.11 0.50 0.49 99 1015.9
20201125145831 44 181 4.3 15.6 0.11 0.49 0.48 99 1015.9
20201125145330 44 220 3.5 15.6 0.11 0.47 0.46 99 1016.0
20201125144832 44 176 3.5 9.6 0.10 0.46 0.45 99 1016.2
20201125144331 44 175 3.5 11.3 0.10 0.45 0.44 99 1016.2
20201125143832 44 223 3.5 11.3 0.08 0.43 0.43 99 1016.3
20201125143332 44 130 3.5 9.6 0.07 0.42 0.41 99 1016.3
20201125142831 44 220 4.3 10.4 0.07 0.41 0.40 99 1016.4
20201125142331 44 178 3.5 10.4 0.06 0.40 0.39 99 1016.3
20201125141840 44 184 4.3 11.3 0.05 0.39 0.38 99 1016.4
20201125141334 44 221 4.3 11.3 0.06 0.39 0.38 99 1016.4
20201125140831 44 160 4.3 11.3 0.06 0.38 0.37 99 1016.5
20201125140332 44 155 4.3 13.9 0.07 0.38 0.37 99 1016.4
20201125135831 44 205 4.3 13.9 0.07 0.38 0.37 99 1016.6
20201125135330 44 218 4.3 13.0 0.07 0.37 0.36 99 1016.6
20201125134829 44 238 3.5 13.0 0.08 0.36 0.35 99 1016.7
20201125134327 44 229 3.5 7.8 0.09 0.35 0.34 99 1016.6
20201125133825 44 145 3.5 7.8 0.10 0.35 0.34 99 1016.6
20201125133329 44 209 3.5 7.8 0.11 0.35 0.34 99 1016.5
20201125132820 44 202 3.5 7.8 0.12 0.34 0.33 99 1016.4
20201125132322 43 171 3.5 7.8 0.13 0.34 0.33 99 1016.4
20201125131821 43 226 3.5 9.6 0.14 0.34 0.33 99 1016.3
20201125131320 43 254 2.6 9.6 0.15 0.33 0.32 99 1016.3
20201125130819 43 187 2.6 7.8 0.15 0.32 0.31 99 1016.3
20201125130321 43 203 3.5 10.4 0.15 0.31 0.31 99 1016.4
20201125125819 43 190 3.5 10.4 0.15 0.31 0.30 99 1016.5
20201125125323 43 219 3.5 7.8 0.14 0.29 0.28 99 1016.5
20201125124820 43 242 3.5 12.2 0.13 0.28 0.27 99 1016.5
20201125124321 43 236 3.5 12.2 0.13 0.26 0.25 99 1016.5
20201125123820 42 187 3.5 8.7 0.12 0.25 0.24 99 1016.6
20201125123323 42 233 3.5 11.3 0.12 0.24 0.23 98 1016.6
20201125122820 42 246 3.5 11.3 0.11 0.22 0.22 98 1016.6
20201125122322 42 148 3.5 11.3 0.11 0.21 0.20 98 1016.6
20201125121820 42 189 3.5 11.3 0.11 0.20 0.19 98 1016.5
20201125121321 42 248 2.6 8.7 0.11 0.19 0.18 97 1016.6
20201125120820 42 259 2.6 8.7 0.12 0.18 0.17 97 1016.6
20201125120321 42 199 3.5 7.0 0.13 0.17 0.16 97 1016.7
20201125115820 42 233 3.5 7.8 0.13 0.16 0.15 96 1016.7
20201125115317 42 231 3.5 7.8 0.12 0.15 0.14 96 1016.7
20201125114820 42 224 2.6 7.8 0.12 0.14 0.13 94 1016.6
20201125114315 42 175 2.6 7.8 0.11 0.13 0.13 93 1016.5
20201125113815 42 176 3.5 10.4 0.11 0.13 0.12 93 1016.5
20201125113318 42 258 3.5 10.4 0.10 0.11 0.11 92 1016.5
20201125112815 43 211 2.6 7.0 0.09 0.11 0.10 91 1016.5
20201125112313 43 231 3.5 9.6 0.09 0.10 0.09 90 1016.5
20201125111812 43 265 3.5 9.6 0.07 0.08 0.07 90 1016.5
20201125111311 43 281 3.5 8.7 0.06 0.07 0.06 88 1016.6
20201125110812 43 202 3.5 10.4 0.04 0.06 0.05 87 1016.6
20201125110312 43 236 3.5 10.4 0.03 0.04 0.04 85 1016.6
20201125105811 44 270 3.5 7.8 0.03 0.04 0.03 84 1016.7
20201125105312 44 234 4.3 8.7 0.02 0.03 0.02 83 1016.8
20201125104814 44 258 3.5 10.4 0.02 0.02 0.02 81 1016.8
20201125104313 44 271 3.5 10.4 0.01 0.02 0.01 80 1016.8
20201125103814 44 267 3.5 8.7 0.01 0.02 0.01 79 1016.8
20201125103315 44 259 3.5 8.7 0.01 0.02 0.01 79 1016.7
20201125102813 44 273 3.5 7.8 0.01 0.02 0.01 79 1016.7
20201125102312 44 266 3.5 7.8 0.00 0.01 0.00 79 1016.6
20201125101812 44 245 2.6 7.0 0.00 0.01 0.00 79 1016.6
20201125101314 43 180 2.6 7.0 0.00 0.01 0.00 79 1016.5
20201125100811 44 238 2.6 7.0 0.00 0.01 0.00 79 1016.3
20201125100311 43 227 1.7 4.3 0.00 0.01 0.00 78 1016.4
20201125095812 44 248 1.7 4.3 0.00 0.01 0.00 77 1016.3
20201125095310 44 229 1.7 6.1 0.00 0.01 0.00 77 1016.3
20201125094810 44 270 2.6 7.8 0.00 0.01 0.00 75 1016.2
20201125094310 44 258 2.6 7.8 0.00 0.01 0.00 74 1016.2
20201125093823 43 300 2.6 8.7 0.00 0.01 0.00 74 1016.2
20201125093312 43 251 3.5 8.7 0.00 0.01 0.00 74 1016.2
20201125092813 43 211 3.5 7.8 0.00 0.01 0.00 74 1016.2
20201125092315 43 208 2.6 6.1 0.00 0.01 0.00 74 1016.2
20201125091810 43 156 2.6 6.1 0.00 0.01 0.00 75 1016.2
20201125091313 43 218 2.6 6.1 0.00 0.01 0.00 75 1015.9
20201125090812 42 218 2.6 6.1 0.00 0.01 0.00 75 1015.9
20201125090313 42 171 2.6 8.7 0.00 0.01 0.00 77 1016.0
20201125085834 42 183 3.5 8.7 0.00 0.01 0.00 77 1016.0
20201125085310 42 255 3.5 7.8 0.00 0.01 0.00 77 1016.0
20201125084811 42 237 3.5 7.8 0.00 0.01 0.00 77 1016.0
20201125084313 42 195 3.5 10.4 0.00 0.01 0.00 78 1016.2
20201125083811 42 169 3.5 10.4 0.00 0.01 0.00 78 1016.0
20201125083308 42 244 3.5 7.0 0.00 0.01 0.00 78 1016.2
20201125082804 42 192 3.5 9.6 0.00 0.01 0.00 78 1016.2
20201125082306 41 254 3.5 9.6 0.00 0.01 0.00 79 1016.0
20201125081807 41 246 2.6 7.8 0.00 0.01 0.00 79 1016.3
20201125081308 41 179 2.6 7.8 0.00 0.01 0.00 80 1016.3
20201125080805 41 183 2.6 7.8 0.00 0.01 0.00 80 1016.4
20201125080305 40 235 3.5 8.7 0.00 0.01 0.00 81 1016.3
20201125075807 40 208 2.6 8.7 0.00 0.01 0.00 81 1016.3
20201125075306 39 138 1.7 7.8 0.00 0.01 0.00 83 1016.2
20201125074805 39 256 1.7 5.2 0.00 0.01 0.00 83 1016.0
20201125074305 38 278 1.7 5.2 0.00 0.01 0.00 84 1016.2
20201125073805 38 277 1.7 5.2 0.00 0.01 0.00 84 1016.3
20201125073306 38 144 1.7 4.3 0.00 0.01 0.00 84 1016.0
20201125072803 38 227 1.7 8.7 0.00 0.01 0.00 84 1016.2
20201125072305 38 130 1.7 8.7 0.00 0.01 0.00 85 1016.3
20201125071803 37 151 0.9 2.6 0.00 0.01 0.00 84 1016.3
20201125071303 37 121 0.9 2.6 0.00 0.01 0.00 84 1016.3
20201125070802 37 143 1.7 3.5 0.00 0.01 0.00 83 1016.4
20201125070308 37 130 1.7 3.5 0.00 0.01 0.00 83 1016.4
20201125065803 37 154 0.9 3.5 0.00 0.01 0.00 83 1016.4
20201125065302 38 165 0.9 2.6 0.00 0.01 0.00 83 1016.7
20201125064802 37 144 0.0 2.6 0.00 0.01 0.00 83 1016.7
20201125064304 38 0 0.0 1.7 0.00 0.01 0.00 81 1016.7
20201125063802 38 0 0.0 2.6 0.00 0.01 0.00 81 1016.7
20201125063305 38 0 0.0 3.5 0.00 0.01 0.00 81 1016.8
20201125062800 38 0 0.0 3.5 0.00 0.01 0.00 81 1016.7
20201125062256 39 0 0.0 1.7 0.00 0.01 0.00 80 1016.8
20201125061757 39 0 0.0 1.7 0.00 0.01 0.00 80 1016.9
20201125061257 39 0 0.0 1.7 0.00 0.01 0.00 80 1016.9
20201125060758 39 0 0.0 1.7 0.00 0.01 0.00 80 1016.8
20201125060258 39 0 0.0 2.6 0.00 0.01 0.00 80 1016.7
20201125055758 39 0 0.9 2.6 0.00 0.01 0.00 79 1016.6
20201125055258 39 0 0.9 4.3 0.00 0.01 0.00 79 1016.6
20201125054757 39 123 1.7 4.3 0.00 0.01 0.00 79 1016.6
20201125054258 39 115 0.9 3.5 0.00 0.01 0.00 79 1016.6
20201125053757 39 137 0.9 3.5 0.00 0.01 0.00 79 1016.6
20201125053257 39 0 0.9 2.6 0.00 0.01 0.00 79 1016.7
20201125052800 39 160 0.9 3.5 0.00 0.01 0.00 79 1016.8
20201125052306 39 0 0.9 3.5 0.00 0.01 0.00 79 1016.7
20201125051757 39 206 0.9 4.3 0.00 0.01 0.00 79 1016.7
20201125051304 39 0 0.9 4.3 0.00 0.01 0.00 79 1016.8
20201125050758 39 271 0.9 3.5 0.00 0.01 0.00 79 1016.9
20201125050301 40 0 0.9 4.3 0.00 0.01 0.00 79 1017.0
20201125045751 40 166 0.9 4.3 0.00 0.01 0.01 79 1017.0
20201125045252 39 155 1.7 3.5 0.00 0.01 0.01 79 1016.9
20201125044749 40 123 1.7 5.2 0.00 0.01 0.01 79 1016.8
20201125044250 39 149 1.7 5.2 0.00 0.01 0.01 79 1016.9
20201125043751 39 196 1.7 7.0 0.00 0.01 0.01 79 1016.9
20201125043249 39 153 1.7 7.0 0.00 0.01 0.01 79 1017.0
20201125042749 39 141 1.7 6.1 0.00 0.01 0.01 79 1017.0
20201125042249 39 129 1.7 6.1 0.00 0.01 0.01 79 1017.0
20201125041750 39 127 1.7 4.3 0.00 0.01 0.01 79 1017.0
20201125041249 39 0 1.7 5.2 0.00 0.01 0.01 79 1017.2
20201125040750 39 125 1.7 5.2 0.00 0.01 0.01 79 1017.2
20201125040251 39 0 1.7 6.1 0.00 0.01 0.01 79 1017.4
20201125035750 39 129 1.7 6.1 0.00 0.01 0.01 79 1017.5
20201125035250 39 110 1.7 3.5 0.00 0.01 0.01 79 1017.6
20201125034749 39 169 1.7 5.2 0.00 0.01 0.01 78 1017.8
20201125034253 39 150 1.7 7.0 0.00 0.01 0.01 78 1017.9